Flag for Poland Weather past 2 weeks in Opole, Poland

Now
57 °F

Clear.


Feels Like: 57 °F
Forecast: 50 / 75 °F
Wind: 5 mph from South

Location: Wroclaw Ii

Current Time: Apr 26, 2015 at 9:59:22 PM

Latest Report: Apr 26, 2015 at 9:30 PM


Visibility: 10 mi

Pressure: 29.74 "Hg

Humidity: 88%

Dew point: 54 °F

Location of OpoleLocation

Historic Weather in Opole — Graph

°F

Opole temperature yesterday

Maximum temperature yesterday: 73 °F (at 1:00 PM)
Minimum temperature yesterday: 43 °F (at 4:00 AM)
Average temperature yesterday: 61 °F

Past Weeks' High & Low Weather Summary

 TemperatureHumidityPressure
High73 °F (Apr 15, 5:00 PM)94% (Apr 26, 6:30 AM)30.45 "Hg (Apr 26, 6:30 AM)
Low32 °F (Apr 19, 5:30 AM)20% (Apr 21, 3:00 PM)29.74 "Hg (Apr 26, 5:00 PM)
Average54 °F56%30.07 "Hg
* Reported Apr 11 8:00 PM — Apr 26 8:30 PM, Opole, Weather by CustomWeather, © 2015

Note: Actual official high and low records may vary slightly from our data, if they occured in-between our weather recording intervals... More about our weather records

Advertising

Opole weather history for previous 24 hours

 ConditionsComfort  
Time TempWeatherWind HumidityBarometerVisibility
8:30 PM
Sun, Apr 26
59 °FSunny.3 mph77%29.74 "Hg10 mi
8:00 PM63 °FSunny.1 mph68%29.74 "Hg10 mi
7:30 PM66 °FPassing clouds.3 mph60%29.74 "HgN/A
7:00 PM66 °FPassing clouds.6 mph60%29.74 "HgN/A
6:30 PM66 °FPassing clouds.6 mph64%29.74 "HgN/A
6:00 PM66 °FPassing clouds.6 mph64%29.74 "HgN/A
5:30 PM64 °FPassing clouds.6 mph64%29.74 "HgN/A
5:00 PM64 °FPassing clouds.5 mph73%29.74 "HgN/A
4:30 PM64 °FScattered clouds.6 mph68%29.77 "HgN/A
4:00 PM64 °FSprinkles. Scattered clouds.5 mph68%29.77 "HgN/A
3:30 PM64 °FScattered clouds.7 mph64%29.77 "HgN/A
3:00 PM66 °FSprinkles. Scattered clouds.8 mph64%29.77 "HgN/A
2:30 PM66 °FPassing clouds.6 mph64%29.77 "HgN/A
2:00 PM66 °FScattered clouds.6 mph60%29.77 "HgN/A
1:30 PM66 °FScattered clouds.7 mph60%29.77 "HgN/A
1:00 PM66 °FScattered clouds.7 mph56%29.77 "HgN/A
12:30 PM66 °FPassing clouds.8 mph60%29.80 "HgN/A
12:00 PM64 °FPassing clouds.8 mph64%29.80 "HgN/A
11:30 AM64 °FScattered clouds.7 mph68%29.80 "HgN/A
11:00 AM63 °FScattered clouds.8 mph73%29.80 "HgN/A
10:30 AM63 °FScattered clouds.7 mph73%29.80 "HgN/A
10:00 AM63 °FPartly sunny.5 mph77%29.80 "HgN/A
9:30 AM61 °FPartly sunny.6 mph83%29.80 "HgN/A
9:00 AM59 °FPartly sunny.3 mph88%29.80 "HgN/A
8:30 AM59 °FPartly sunny.5 mph88%29.80 "HgN/A
8:00 AM57 °FPartly sunny.2 mph88%29.80 "HgN/A
7:30 AM57 °FPartly sunny.5 mph88%29.80 "HgN/A
7:00 AM55 °FPartly sunny.3 mph94%29.80 "HgN/A
6:30 AM55 °FLight rain. Passing clouds.3 mph94%29.80 "HgN/A
6:00 AM57 °FLight rain. Passing clouds.3 mph88%29.80 "HgN/A
5:30 AM57 °FLight rain. Clear.3 mph88%29.80 "HgN/A
5:00 AM57 °FLight rain. Clear.3 mph88%29.80 "HgN/A
4:30 AM59 °FLight rain. Clear.5 mph77%29.80 "HgN/A
4:00 AM59 °FLight rain. Passing clouds.6 mph77%29.80 "HgN/A
3:30 AM59 °FLight rain. Passing clouds.6 mph72%29.80 "HgN/A
3:00 AM61 °FLight rain. Passing clouds.6 mph68%29.80 "HgN/A
2:30 AM61 °FLight rain. Passing clouds.5 mph63%29.77 "HgN/A
2:00 AM63 °FLight rain. Passing clouds.6 mph59%29.80 "HgN/A
1:30 AM64 °FLight rain. Passing clouds.6 mph52%29.77 "HgN/A
1:00 AM63 °FLight rain. Passing clouds.3 mph56%29.80 "HgN/A
12:30 AM64 °FLight rain. Passing clouds.5 mph49%29.80 "HgN/A
12:00 AM64 °FLight rain. Passing clouds.6 mph43%29.80 "HgN/A
11:00 PM
Sat, Apr 25
64 °FLight rain. Passing clouds.5 mph43%29.80 "HgN/A
10:30 PM64 °FLight rain. Passing clouds.6 mph43%29.80 "HgN/A
10:00 PM63 °FClear.1 mph42%29.77 "Hg10 mi
9:30 PM63 °FClear.2 mph42%29.77 "Hg10 mi
9:00 PM64 °FSunny.3 mph40%29.77 "Hg10 mi
Weather by CustomWeather, © 2015

See weather overviewHow to use our weather pages